Precipitable_Water
0.39 0.42 0.45 0.53 0.55 0.55 0.60 0.67 0.66 0.69 0.70 0.69 0.72 1.01 1.08 1.17 1.32 1.40 1.38 1.41 1.48 1.49 1.38 1.36 1.36 1.39 1.37 1.29 1.27 1.29 1.26 1.27 1.32 1.20 1.19 1.23 1.24 1.25 1.24 1.30 1.33 1.24 1.23
0.37 0.41 0.49 0.45 0.43 0.41 0.46 0.49 0.61 0.71 0.68 0.69 0.67 0.70 0.84 1.06 1.12 1.23 1.29 1.40 1.46 1.48 1.39 1.33 1.33 1.35 1.34 1.35 1.32 1.29 1.25 1.30 1.37 1.17 1.17 1.01 1.10 1.16 1.24 1.28 1.33 1.29 1.27
0.44 0.44 0.43 0.42 0.43 0.40 0.40 0.42 0.48 0.58 0.75 0.71 0.68 0.67 0.71 0.83 0.97 1.07 1.13 1.22 1.30 1.32 1.33 1.32 1.34 1.31 1.43 1.38 1.40 1.36 1.29 1.25 1.39 1.38 1.21 1.01 0.88 1.02 1.17 1.21 1.31 1.30 1.26
0.40 0.41 0.42 0.42 0.44 0.44 0.46 0.46 0.47 0.50 0.61 0.79 0.76 0.65 0.66 0.63 0.81 0.94 1.01 1.07 1.22 1.24 1.29 1.29 1.32 1.31 1.39 1.47 1.45 1.38 1.36 1.38 1.23 1.44 1.47 1.35 1.22 1.01 0.94 1.15 1.22 1.27 1.26
0.40 0.40 0.43 0.44 0.45 0.47 0.47 0.48 0.50 0.55 0.57 0.58 0.73 0.80 0.81 0.69 0.63 0.88 0.97 1.07 1.10 1.17 1.24 1.30 1.30 1.35 1.40 1.48 1.46 1.41 1.31 1.29 1.14 1.33 1.35 1.37 1.32 1.30 1.07 0.98 1.11 1.26 1.27
0.41 0.43 0.46 0.47 0.46 0.47 0.46 0.47 0.48 0.52 0.60 0.62 0.59 0.62 0.67 0.83 0.75 0.73 0.78 1.03 1.03 1.06 1.17 1.20 1.26 1.34 1.39 1.48 1.50 1.41 1.29 1.22 1.11 1.25 1.31 1.31 1.24 1.18 1.11 1.02 1.11 1.12 1.21
0.41 0.42 0.43 0.45 0.47 0.45 0.46 0.46 0.46 0.49 0.57 0.62 0.64 0.60 0.61 0.68 0.85 0.81 0.88 0.96 1.01 1.05 1.05 1.17 1.22 1.33 1.43 1.51 1.50 1.54 1.26 1.21 1.12 1.22 1.22 1.32 1.30 1.34 1.26 1.21 1.09 1.13 1.23
0.42 0.42 0.44 0.47 0.48 0.49 0.49 0.48 0.48 0.54 0.57 0.61 0.62 0.69 0.68 0.72 0.86 0.98 1.03 1.06 1.17 1.17 1.19 1.26 1.28 1.40 1.58 1.40 1.31 1.16 1.21 1.21 1.18 1.12 1.29 1.28 1.28 1.39 1.27 1.30 1.17 1.07 1.19
0.38 0.41 0.42 0.44 0.46 0.48 0.50 0.50 0.50 0.54 0.59 0.62 0.63 0.69 0.73 0.79 0.84 1.04 1.14 1.20 1.23 1.29 1.32 1.33 1.32 1.35 1.28 1.29 1.21 1.13 1.13 1.19 1.25 1.12 1.19 1.23 1.23 1.33 1.32 1.25 1.24 1.11 1.10
0.37 0.38 0.40 0.41 0.43 0.48 0.50 0.53 0.53 0.52 0.57 0.66 0.65 0.74 0.79 0.86 0.89 0.91 1.03 1.12 1.15 1.22 1.27 1.21 1.22 1.21 1.19 1.17 1.16 1.16 1.12 1.17 1.20 1.22 1.27 1.24 1.24 1.30 1.36 1.28 1.22 1.19 1.21
0.36 0.37 0.38 0.41 0.41 0.45 0.48 0.53 0.55 0.56 0.57 0.67 0.67 0.69 0.74 0.80 0.91 0.87 0.96 1.02 1.06 1.12 1.14 1.19 1.20 1.20 1.20 1.16 1.11 1.12 1.20 1.17 1.22 1.29 1.24 1.21 1.32 1.30 1.30 1.31 1.26 1.23 1.15
0.37 0.38 0.38 0.40 0.40 0.40 0.45 0.51 0.56 0.57 0.61 0.64 0.70 0.69 0.71 0.79 0.83 0.86 0.91 0.97 0.97 1.00 1.02 1.04 0.99 0.97 0.96 0.99 1.05 1.01 1.10 1.05 1.05 1.11 1.21 1.25 1.33 1.35 1.32 1.31 1.27 1.25 1.22
0.35 0.36 0.36 0.38 0.40 0.40 0.43 0.49 0.55 0.57 0.58 0.62 0.66 0.66 0.69 0.75 0.78 0.79 0.83 0.84 0.85 0.87 0.86 0.87 0.86 0.83 0.86 0.88 0.89 0.90 0.91 0.91 1.02 1.06 1.12 1.09 1.22 1.31 1.37 1.36 1.32 1.35 1.31
0.33 0.33 0.34 0.36 0.40 0.41 0.41 0.46 0.52 0.57 0.57 0.59 0.63 0.63 0.67 0.75 0.77 0.76 0.73 0.72 0.74 0.71 0.70 0.69 0.69 0.72 0.67 0.64 0.66 0.65 0.70 0.80 0.85 0.92 1.01 1.09 1.15 1.21 1.29 1.37 1.32 1.34 1.35
0.32 0.32 0.33 0.34 0.37 0.38 0.40 0.43 0.50 0.55 0.57 0.57 0.58 0.61 0.63 0.69 0.73 0.75 0.79 0.79 0.71 0.67 0.65 0.60 0.57 0.57 0.53 0.54 0.52 0.55 0.57 0.61 0.68 0.79 0.88 0.99 1.10 1.20 1.19 1.26 1.27 1.29 1.24
0.32 0.32 0.33 0.34 0.36 0.37 0.39 0.39 0.45 0.50 0.55 0.56 0.55 0.55 0.58 0.58 0.56 0.60 0.64 0.69 0.64 0.62 0.62 0.59 0.54 0.51 0.52 0.50 0.50 0.48 0.46 0.48 0.51 0.56 0.66 0.82 0.98 1.03 1.16 1.21 1.33 1.36 1.26
0.32 0.32 0.33 0.34 0.36 0.37 0.37 0.37 0.41 0.46 0.48 0.52 0.54 0.52 0.50 0.50 0.49 0.50 0.52 0.55 0.56 0.55 0.53 0.50 0.50 0.50 0.52 0.51 0.51 0.48 0.44 0.44 0.49 0.53 0.58 0.65 0.78 0.93 1.08 1.13 1.22 1.30 1.29
0.32 0.31 0.32 0.33 0.35 0.36 0.36 0.37 0.39 0.40 0.42 0.44 0.48 0.51 0.50 0.49 0.49 0.49 0.49 0.46 0.47 0.52 0.52 0.49 0.48 0.47 0.49 0.49 0.47 0.44 0.45 0.45 0.48 0.51 0.56 0.60 0.64 0.73 0.87 0.96 1.08 1.20 1.25
0.33 0.32 0.32 0.32 0.32 0.32 0.33 0.34 0.35 0.36 0.37 0.38 0.40 0.42 0.44 0.46 0.49 0.52 0.52 0.51 0.53 0.53 0.49 0.50 0.51 0.50 0.50 0.52 0.48 0.43 0.44 0.43 0.44 0.47 0.48 0.52 0.55 0.63 0.74 0.76 0.83 0.94 1.11
0.34 0.31 0.30 0.31 0.30 0.31 0.31 0.31 0.31 0.32 0.32 0.35 0.37 0.38 0.39 0.40 0.39 0.40 0.41 0.43 0.46 0.53 0.56 0.52 0.52 0.52 0.53 0.54 0.52 0.45 0.42 0.39 0.40 0.44 0.45 0.46 0.52 0.53 0.63 0.72 0.76 0.80 0.89
0.31 0.30 0.28 0.27 0.28 0.29 0.29 0.28 0.28 0.28 0.30 0.32 0.33 0.35 0.36 0.36 0.36 0.38 0.38 0.38 0.38 0.39 0.43 0.45 0.46 0.47 0.46 0.46 0.47 0.46 0.43 0.40 0.37 0.38 0.39 0.43 0.45 0.47 0.53 0.61 0.73 0.80 0.91
0.27 0.26 0.25 0.25 0.26 0.27 0.26 0.25 0.25 0.28 0.29 0.30 0.30 0.31 0.32 0.32 0.33 0.33 0.34 0.34 0.34 0.33 0.33 0.34 0.37 0.40 0.40 0.42 0.42 0.43 0.43 0.42 0.39 0.38 0.40 0.41 0.40 0.42 0.47 0.53 0.60 0.73 0.84
0.24 0.24 0.23 0.23 0.24 0.25 0.24 0.23 0.25 0.26 0.27 0.27 0.27 0.28 0.29 0.29 0.30 0.29 0.29 0.29 0.29 0.29 0.29 0.29 0.29 0.29 0.31 0.34 0.37 0.37 0.38 0.40 0.38 0.40 0.40 0.40 0.40 0.41 0.42 0.47 0.53 0.64 0.76
0.23 0.23 0.22 0.22 0.22 0.24 0.24 0.24 0.25 0.26 0.25 0.25 0.26 0.27 0.26 0.27 0.28 0.28 0.28 0.27 0.26 0.26 0.25 0.25 0.25 0.27 0.28 0.29 0.29 0.31 0.34 0.36 0.37 0.38 0.39 0.40 0.41 0.41 0.40 0.42 0.48 0.56 0.66
0.22 0.22 0.21 0.22 0.21 0.22 0.23 0.24 0.25 0.25 0.24 0.25 0.26 0.26 0.26 0.26 0.26 0.27 0.27 0.27 0.27 0.26 0.24 0.25 0.25 0.24 0.24 0.26 0.28 0.28 0.29 0.31 0.33 0.33 0.36 0.37 0.38 0.37 0.38 0.38 0.41 0.47 0.53
0.22 0.22 0.22 0.21 0.21 0.21 0.22 0.23 0.25 0.26 0.25 0.24 0.25 0.25 0.25 0.25 0.26 0.26 0.26 0.29 0.28 0.27 0.27 0.27 0.26 0.26 0.26 0.27 0.28 0.29 0.29 0.30 0.31 0.32 0.33 0.34 0.36 0.36 0.37 0.37 0.38 0.42 0.46
Wind_Speed
25 26 27 29 30 30 31 32 33 34 34 35 37 39 40 42 43 44 43 42 41 39 39 39 37 37 37 36 36 34 33 31 30 29 27 26 26 25 24 23 21 19 18
28 28 29 31 32 33 34 35 36 37 37 38 38 39 40 41 42 43 45 44 44 43 42 42 42 41 39 39 38 37 35 34 33 31 29 28 28 28 27 25 24 23 20
29 31 33 34 35 36 36 37 38 39 40 41 42 42 43 44 44 44 44 44 46 45 44 44 44 44 43 41 41 39 38 36 36 36 32 28 29 29 30 29 27 25 23
33 34 35 35 36 37 38 38 39 40 41 41 43 44 44 44 44 45 45 45 45 46 46 46 45 45 45 44 42 41 39 36 36 40 40 36 30 28 26 27 28 27 26
33 34 34 35 35 36 37 38 39 40 41 42 43 44 45 46 47 45 46 46 46 46 47 47 47 47 46 45 44 42 42 42 40 35 39 40 37 34 30 25 27 28 27
32 33 34 35 36 36 36 37 39 40 41 42 43 44 46 47 48 47 47 46 45 46 47 47 48 49 48 46 46 43 41 39 39 39 38 39 36 35 33 31 26 25 25
33 34 35 36 37 37 38 38 38 38 39 40 41 41 44 46 47 48 46 46 45 46 46 47 47 47 48 46 50 35 37 37 37 40 37 38 37 34 34 33 31 28 26
33 35 36 36 37 38 38 39 38 38 38 38 38 38 39 39 42 46 45 44 41 39 41 42 42 43 42 50 39 30 35 35 38 36 39 40 39 37 36 34 32 31 29
33 34 34 35 36 37 37 37 37 38 38 37 37 36 36 35 34 34 37 35 34 34 37 38 39 41 46 37 35 38 44 41 37 37 36 37 41 39 38 36 35 32 30
33 34 35 35 35 36 36 36 36 35 36 35 34 32 32 32 32 31 32 33 32 30 31 31 32 35 35 34 36 34 30 31 33 37 38 37 35 37 37 37 36 36 34
34 34 34 33 34 32 31 31 31 29 29 26 27 28 26 31 29 30 30 30 31 31 31 31 33 33 33 33 29 30 31 33 33 33 35 37 37 36 36 36 36 37 36
32 33 32 29 29 28 27 28 26 25 22 20 19 21 23 23 25 29 29 27 27 27 27 27 25 25 26 27 28 27 29 29 31 32 33 34 35 36 35 35 37 37 37
31 30 28 24 25 25 24 25 26 23 21 19 16 18 19 18 19 18 24 24 24 25 24 24 25 25 25 25 26 26 26 26 26 30 31 33 35 35 35 36 36 36 36
28 28 25 23 23 22 23 24 24 21 20 18 17 16 16 16 16 18 19 21 22 24 24 23 23 23 23 23 23 24 26 27 29 29 30 31 33 36 36 37 37 37 37
27 26 23 22 22 22 22 22 22 20 19 16 14 13 14 15 13 14 19 21 21 21 22 22 22 21 21 21 21 24 26 28 30 32 33 33 35 35 38 38 39 38 38
25 24 20 20 20 20 20 20 20 19 17 14 9 7 10 11 12 11 12 14 15 14 16 18 18 20 21 21 22 24 26 27 29 30 31 34 36 38 38 40 40 40 39
20 19 18 18 18 18 18 18 18 18 16 13 9 9 9 10 11 12 13 13 15 16 16 18 19 19 20 20 22 23 23 25 26 28 29 31 33 37 38 39 39 42 43
19 17 16 16 17 16 17 18 17 17 16 14 11 10 11 11 12 13 13 12 13 15 19 20 20 21 21 21 22 22 23 24 25 26 27 29 30 34 37 38 39 40 42
16 15 15 16 16 16 17 17 17 16 16 14 13 12 12 12 13 15 17 17 18 18 17 18 20 22 23 22 23 23 25 25 25 26 27 28 28 30 36 39 40 41 40
16 16 16 16 17 16 17 17 17 16 16 16 15 14 13 13 13 13 14 15 17 20 23 21 21 22 24 25 27 26 27 27 27 28 28 28 28 28 31 36 39 40 40
17 17 17 16 17 17 18 18 18 17 18 17 16 15 14 14 14 14 15 15 16 17 18 20 21 22 23 24 26 27 28 29 30 30 30 30 30 30 30 31 36 39 40
18 17 17 17 17 17 18 18 18 19 19 19 18 16 16 15 15 16 16 16 17 17 18 18 20 22 24 25 27 28 30 31 32 32 31 31 32 31 32 31 32 36 39
18 18 18 18 17 18 19 19 19 20 20 20 20 19 19 19 18 18 18 18 18 18 19 20 21 23 25 26 28 30 31 32 33 33 33 34 33 32 32 32 31 32 35
18 19 19 19 19 19 20 20 20 20 20 21 21 21 21 21 21 21 20 20 20 21 22 23 24 26 28 29 31 32 33 34 35 35 36 35 35 34 32 31 31 30 30
19 20 20 20 20 20 20 20 20 21 21 20 20 20 21 22 22 22 23 23 23 24 25 26 27 29 31 32 35 37 38 39 39 39 39 37 36 35 34 33 31 31 31
20 20 21 21 21 21 21 21 21 21 21 21 21 22 22 22 22 23 24 24 25 26 26 28 30 31 33 36 37 39 41 42 42 42 41 40 39 38 37 36 34 33 32
Wind_Direction
291 292 291 289 287 283 279 276 272 268 264 260 256 253 252 251 250 250 250 250 251 250 250 251 252 253 254 255 251 254 254 254 255 256 258 256 257 257 258 257 259 260 258
295 294 293 293 290 285 281 277 274 270 266 262 259 256 254 252 252 251 251 250 250 251 251 250 251 252 253 252 251 251 253 253 253 255 256 256 256 255 254 256 256 255 255
300 299 297 294 291 287 284 280 276 273 268 264 261 258 256 254 252 251 252 251 250 250 250 251 251 250 251 251 249 249 251 253 254 251 253 255 255 254 253 253 252 252 253
300 300 298 296 293 290 286 282 278 274 270 266 262 258 256 254 252 252 252 252 250 250 250 250 250 250 248 247 247 247 249 251 256 255 250 252 254 250 253 250 247 250 251
303 302 301 298 296 294 290 285 281 276 272 268 264 260 259 255 253 252 252 252 251 251 250 250 249 249 247 246 246 243 248 254 257 254 252 251 249 251 250 252 248 249 248
304 304 302 301 299 298 295 289 284 279 275 271 267 263 261 257 253 252 251 250 251 250 249 249 249 248 246 245 242 242 252 255 256 253 251 246 246 246 245 249 247 244 246
305 305 305 304 303 301 298 297 290 282 278 274 269 265 262 259 255 251 249 250 250 248 248 246 247 247 245 243 242 227 248 256 256 252 249 244 244 246 245 245 245 248 247
305 306 307 306 306 304 301 299 296 286 280 275 270 265 262 259 256 249 248 248 245 245 245 242 244 244 241 246 246 251 256 260 256 252 247 242 245 244 243 243 244 246 246
306 307 308 308 308 307 305 301 300 294 284 277 270 265 260 257 253 249 241 240 241 240 240 241 242 242 248 259 254 259 264 256 254 247 245 245 246 246 243 242 243 244 244
307 306 306 308 309 308 308 305 301 296 287 278 272 262 257 252 248 243 240 235 237 239 237 238 240 244 250 252 255 259 261 251 247 246 245 245 245 244 242 241 242 243 244
307 307 307 306 311 310 311 311 310 305 297 278 271 263 258 244 243 240 237 233 235 237 240 242 246 249 248 252 257 251 255 248 250 249 246 246 245 244 242 242 243 243 243
307 310 308 306 312 313 314 316 316 314 307 285 272 264 250 244 238 236 231 231 233 235 238 243 246 244 248 252 252 254 251 251 250 251 249 247 245 244 243 243 243 243 243
308 310 311 307 311 313 316 318 319 315 311 293 278 265 255 249 232 228 226 229 232 234 239 245 248 250 252 253 252 250 252 251 253 252 252 249 247 246 244 243 243 243 243
310 311 310 309 313 315 318 321 323 318 316 301 280 273 259 242 238 238 230 232 234 239 242 247 249 248 249 249 252 252 253 255 255 257 257 254 251 248 246 245 244 243 243
311 313 309 310 315 317 321 324 329 323 323 315 295 262 258 255 251 243 234 235 237 240 243 245 247 245 244 249 253 256 257 259 259 260 259 259 254 252 249 246 245 245 245
309 312 311 313 318 318 326 329 333 332 329 325 303 290 272 255 262 261 254 242 232 244 241 241 241 244 247 254 258 260 261 261 262 262 260 261 256 253 252 249 247 246 246
316 314 313 316 320 323 327 331 335 337 337 334 308 294 303 278 269 266 266 254 247 249 248 245 246 250 254 258 262 263 263 264 263 263 265 265 260 252 251 251 250 247 247
320 316 315 318 322 327 331 332 336 340 339 339 326 301 298 292 282 274 268 270 263 255 255 251 252 254 258 263 266 265 264 266 266 266 268 269 266 255 253 252 249 250 245
322 318 316 316 321 326 331 332 337 340 344 337 327 317 311 300 287 281 276 268 266 262 266 263 260 259 262 262 266 269 267 266 268 268 269 270 271 265 257 253 251 248 249
325 321 316 316 316 321 324 325 328 333 337 339 333 324 318 308 301 294 289 282 275 268 265 266 264 264 266 268 266 269 267 268 268 269 270 270 271 271 266 257 252 250 249
327 326 321 315 316 317 320 320 322 324 326 327 328 328 323 315 307 302 296 293 287 282 275 271 267 265 269 269 270 269 269 268 269 270 271 270 272 271 271 266 256 253 250
330 329 327 322 320 319 318 317 317 318 319 319 318 319 318 315 311 308 302 298 293 288 285 280 274 272 274 273 274 274 272 271 269 269 269 269 272 273 272 269 263 258 254
329 331 330 326 325 322 320 316 316 315 315 314 314 312 311 311 308 304 301 298 296 294 289 284 280 279 279 277 277 277 276 272 270 269 268 270 270 271 271 269 267 263 254
326 327 327 325 324 324 322 320 316 314 312 311 309 309 308 306 305 302 299 296 294 292 289 286 285 283 281 281 281 279 276 274 272 270 269 268 268 268 268 268 265 264 260
322 324 325 324 323 323 322 321 320 317 313 311 309 308 308 307 305 302 298 295 292 291 289 287 287 286 285 285 284 281 277 274 272 271 269 266 265 265 266 265 264 263 261
320 322 324 322 322 322 322 322 322 321 317 312 309 306 305 305 303 302 300 296 294 292 290 289 288 288 288 288 286 283 280 276 272 269 266 264 264 263 264 263 262 261 260